"read_dt","SO2 (ppb)","flags","PMT voltage (V)","lamp voltage (V)","lamp intensity (Hz)","internal temp (C)","react chamber temp (C)","sample flow (l/min)","pres (mmHg)","SO2 bkg (ppb)","SO2 coefficient"
2014-04-11 00:00:00,3071E-2,5C000400,-0724,1002,10489,027.1,045.3,0.150,737.9,01.18,0.508
2014-04-11 00:01:00,3039E-2,5C000400,-0724,1003,10584,027.1,045.3,0.150,737.9,01.18,0.508
2014-04-11 00:02:00,2998E-2,5C000400,-0724,1003,10513,027.1,045.3,0.150,737.9,01.18,0.508
2014-04-11 00:03:00,2951E-2,5C000400,-0724,1003,10527,027.1,045.3,0.150,737.8,01.18,0.508
2014-04-11 00:04:00,3029E-2,5C000400,-0724,1004,10475,027.1,045.3,0.150,737.9,01.18,0.508
2014-04-11 00:05:00,3032E-2,5C000400,-0724,1003,10369,027.1,045.3,0.150,737.8,01.18,0.508
2014-04-11 00:06:00,2974E-2,5C000400,-0724,1003,10442,027.0,045.3,0.150,737.7,01.18,0.508
2014-04-11 00:07:00,3032E-2,5C000400,-0724,1003,10622,027.0,045.3,0.150,737.8,01.18,0.508
2014-04-11 00:08:00,2988E-2,5C000400,-0724,1005,10460,027.0,045.3,0.150,737.8,01.18,0.508
2014-04-11 00:09:00,2971E-2,5C000400,-0724,1003,10538,027.0,045.3,0.150,737.7,01.18,0.508
2014-04-11 00:10:00,3003E-2,5C000400,-0724,1003,10453,027.0,045.3,0.150,737.6,01.18,0.508
2014-04-11 00:11:00,3028E-2,5C000400,-0724,1003,10364,027.0,045.3,0.150,737.6,01.18,0.508
2014-04-11 00:12:00,3013E-2,5C000400,-0724,1003,10466,027.0,045.3,0.150,737.6,01.18,0.508
2014-04-11 00:13:00,3032E-2,5C000400,-0724,1004,10478,027.0,045.3,0.150,737.6,01.18,0.508
2014-04-11 00:14:00,3007E-2,5C000400,-0724,1004,10542,027.0,045.3,0.150,737.5,01.18,0.508
2014-04-11 00:15:00,3061E-2,5C000400,-0724,1004,10467,027.0,045.3,0.150,737.5,01.18,0.508
2014-04-11 00:16:00,2984E-2,5C000400,-0724,1004,10400,027.0,045.3,0.150,737.4,01.18,0.508
2014-04-11 00:17:00,3029E-2,5C000400,-0724,1005,10594,027.0,045.3,0.150,737.3,01.18,0.508
2014-04-11 00:18:00,3019E-2,5C000400,-0724,1005,10453,027.0,045.3,0.150,737.3,01.18,0.508
2014-04-11 00:19:00,3007E-2,5C000400,-0724,1003,10513,027.0,045.3,0.150,737.3,01.18,0.508
2014-04-11 00:20:00,3024E-2,5C000400,-0724,1004,10456,027.0,045.3,0.150,737.3,01.18,0.508
2014-04-11 00:21:00,3043E-2,5C000400,-0724,1004,10528,027.0,045.3,0.150,737.2,01.18,0.508
2014-04-11 00:22:00,3006E-2,5C000400,-0724,1004,10579,027.1,045.3,0.150,737.1,01.18,0.508
2014-04-11 00:23:00,3019E-2,5C000400,-0724,1005,10447,027.0,045.3,0.150,737.1,01.18,0.508
2014-04-11 00:24:00,3020E-2,5C000400,-0724,1005,10368,027.0,045.3,0.150,737.1,01.18,0.508
2014-04-11 00:25:00,2991E-2,5C000400,-0724,1004,10480,027.0,045.3,0.150,736.9,01.18,0.508
2014-04-11 00:26:00,3019E-2,5C000400,-0724,1004,10414,027.0,045.3,0.150,736.9,01.18,0.508
2014-04-11 00:27:00,3006E-2,5C000400,-0724,1005,10514,027.0,045.3,0.150,736.7,01.18,0.508
2014-04-11 00:28:00,3013E-2,5C000400,-0724,1004,10459,027.0,045.3,0.150,736.7,01.18,0.508
2014-04-11 00:29:00,3042E-2,5C000400,-0724,1004,10418,027.0,045.3,0.150,736.7,01.18,0.508
2014-04-11 00:30:00,2991E-2,5C000400,-0724,1005,10400,027.0,045.3,0.150,736.5,01.18,0.508
2014-04-11 00:31:00,3022E-2,5C000400,-0724,1005,10558,027.0,045.3,0.150,736.4,01.18,0.508
2014-04-11 00:32:00,3008E-2,5C000400,-0724,1005,10438,026.9,045.3,0.150,736.4,01.18,0.508
2014-04-11 00:33:00,3009E-2,5C000400,-0724,1006,10431,027.0,045.3,0.150,736.4,01.18,0.508
2014-04-11 00:34:00,3010E-2,5C000400,-0724,1005,10533,027.0,045.3,0.150,736.2,01.18,0.508
2014-04-11 00:35:00,3065E-2,5C000400,-0724,1005,10456,027.0,045.3,0.150,736.3,01.18,0.508
2014-04-11 00:36:00,3059E-2,5C000400,-0724,1004,10424,026.9,045.3,0.150,736.0,01.18,0.508
2014-04-11 00:37:00,3051E-2,5C000400,-0724,1006,10514,027.0,045.3,0.150,735.2,01.18,0.508
2014-04-11 00:38:00,3032E-2,5C000400,-0724,1005,10327,027.0,045.3,0.150,735.7,01.18,0.508
2014-04-11 00:39:00,3007E-2,5C000400,-0724,1005,10514,026.9,045.3,0.150,734.6,01.18,0.508
2014-04-11 00:40:00,3014E-2,5C000400,-0724,1005,10382,026.9,045.3,0.150,734.6,01.18,0.508
2014-04-11 00:41:00,3029E-2,5C000400,-0724,1006,10507,026.9,045.3,0.150,734.5,01.18,0.508
2014-04-11 00:42:00,3021E-2,5C000400,-0724,1005,10434,026.9,045.3,0.150,734.4,01.18,0.508
2014-04-11 00:43:00,3051E-2,5C000400,-0724,1007,10513,027.0,045.3,0.150,734.5,01.18,0.508
2014-04-11 00:44:00,3019E-2,5C000400,-0724,1006,10386,027.0,045.3,0.150,734.4,01.18,0.508
2014-04-11 00:45:00,3052E-2,5C000400,-0724,1005,10335,027.0,045.3,0.150,734.3,01.18,0.508
2014-04-11 00:46:00,3076E-2,5C000400,-0724,1006,10457,027.0,045.3,0.150,734.4,01.18,0.508
2014-04-11 00:47:00,3052E-2,5C000400,-0724,1007,10499,027.0,045.3,0.150,734.6,01.18,0.508
2014-04-11 00:48:00,3080E-2,5C000400,-0724,1006,10432,027.0,045.3,0.150,734.2,01.18,0.508
2014-04-11 00:49:00,3027E-2,5C000400,-0724,1006,10399,027.0,045.3,0.150,734.4,01.18,0.508
2014-04-11 00:50:00,2996E-2,5C000400,-0724,1006,10417,027.0,045.3,0.150,734.6,01.18,0.508
2014-04-11 00:51:00,3061E-2,5C000400,-0724,1006,10378,027.0,045.3,0.150,734.4,01.18,0.508
2014-04-11 00:52:00,3048E-2,5C000400,-0724,1006,10454,027.0,045.3,0.150,734.3,01.18,0.508
2014-04-11 00:53:00,3000E-2,5C000400,-0724,1006,10397,027.0,045.3,0.150,734.0,01.19,0.508
2014-04-11 00:54:00,3029E-2,5C000400,-0724,1006,10270,027.0,045.3,0.150,734.0,01.19,0.508
2014-04-11 00:55:00,3022E-2,5C000400,-0724,1006,10497,027.0,045.3,0.150,734.3,01.18,0.508
2014-04-11 00:56:00,2906E-2,5C000400,-0724,0997,10646,027.0,045.3,0.150,734.3,01.18,0.508
2014-04-11 00:57:00,2841E-2,5C000400,-0724,0997,10647,027.0,045.3,0.150,734.3,01.18,0.508
2014-04-11 00:58:00,2840E-2,5C000400,-0724,0996,10597,027.0,045.3,0.150,734.3,01.18,0.508
2014-04-11 00:59:00,2830E-2,5C000400,-0724,0995,10577,027.0,045.3,0.150,734.4,01.18,0.508
2014-04-11 01:00:00,2820E-2,5C000400,-0724,0996,10547,027.0,045.3,0.150,734.5,01.18,0.508
2014-04-11 01:01:00,2782E-2,5C000400,-0724,0997,10708,027.1,045.3,0.150,734.6,01.18,0.508
2014-04-11 01:02:00,2850E-2,5C000400,-0724,0996,10488,027.1,045.3,0.150,734.5,01.18,0.508
2014-04-11 01:03:00,2849E-2,5C000400,-0724,0996,10663,027.1,045.3,0.150,734.6,01.18,0.508
2014-04-11 01:04:00,2853E-2,5C000400,-0724,0996,10685,027.1,045.3,0.150,734.5,01.18,0.508
2014-04-11 01:05:00,2802E-2,5C000400,-0724,0996,10552,027.1,045.3,0.150,734.5,01.18,0.508
2014-04-11 01:06:00,2770E-2,5C000400,-0724,0997,10370,027.1,045.3,0.150,734.7,01.18,0.508
2014-04-11 01:07:00,2874E-2,5C000400,-0724,0996,10396,027.1,045.3,0.150,734.7,01.18,0.508
2014-04-11 01:08:00,2871E-2,5C000400,-0724,0995,10578,027.1,045.3,0.150,734.5,01.18,0.508
2014-04-11 01:09:00,2868E-2,5C000400,-0724,0994,10540,027.1,045.3,0.150,734.7,01.18,0.508
2014-04-11 01:10:00,2799E-2,5C000400,-0724,0997,10538,027.1,045.3,0.150,734.6,01.18,0.508
2014-04-11 01:11:00,2819E-2,5C000400,-0724,0996,10506,027.1,045.3,0.150,734.8,01.18,0.508
2014-04-11 01:12:00,2880E-2,5C000400,-0724,0996,10509,027.1,045.3,0.150,734.7,01.18,0.508
2014-04-11 01:13:00,2859E-2,5C000400,-0724,0996,10652,027.1,045.3,0.150,734.7,01.18,0.508
2014-04-11 01:14:00,2835E-2,5C000400,-0724,0997,10455,027.1,045.3,0.150,734.7,01.18,0.508
2014-04-11 01:15:00,2801E-2,5C000400,-0724,0998,10529,027.1,045.3,0.150,734.5,01.18,0.508
2014-04-11 01:16:00,2830E-2,5C000400,-0724,0999,10593,027.1,045.3,0.150,734.7,01.18,0.508
2014-04-11 01:17:00,2847E-2,5C000400,-0724,0998,10669,027.1,045.3,0.150,734.7,01.18,0.508
2014-04-11 01:18:00,2799E-2,5C000400,-0724,0998,10577,027.1,045.3,0.150,734.8,01.18,0.508
2014-04-11 01:19:00,2814E-2,5C000400,-0724,0998,10619,027.1,045.3,0.150,734.7,01.18,0.508
2014-04-11 01:20:00,2843E-2,5C000400,-0724,0997,10606,027.1,045.3,0.150,734.7,01.18,0.508
2014-04-11 01:21:00,2837E-2,5C000400,-0724,0998,10354,027.2,045.3,0.150,734.8,01.18,0.508
2014-04-11 01:22:00,2839E-2,5C000400,-0724,0998,10592,027.1,045.3,0.150,734.7,01.18,0.508
2014-04-11 01:23:00,2824E-2,5C000400,-0724,0997,10642,027.2,045.3,0.150,734.7,01.18,0.508
2014-04-11 01:24:00,2802E-2,5C000400,-0724,0997,10576,027.1,045.3,0.150,734.8,01.18,0.508
2014-04-11 01:25:00,2870E-2,5C000400,-0724,0998,10476,027.1,045.3,0.150,734.7,01.18,0.508
2014-04-11 01:26:00,2872E-2,5C000400,-0724,0999,10597,027.2,045.3,0.150,734.7,01.18,0.508
2014-04-11 01:27:00,2835E-2,5C000400,-0724,0997,10379,027.2,045.3,0.150,734.6,01.18,0.508
2014-04-11 01:28:00,2824E-2,5C000400,-0724,0998,10544,027.2,045.3,0.150,734.3,01.18,0.508
2014-04-11 01:29:00,2849E-2,5C000400,-0724,0998,10601,027.2,045.3,0.150,734.5,01.18,0.508
2014-04-11 01:30:00,2855E-2,5C000400,-0724,0998,10526,027.2,045.3,0.150,734.4,01.18,0.508
2014-04-11 01:31:00,2826E-2,5C000400,-0724,0998,10552,027.2,045.3,0.150,734.4,01.18,0.508
2014-04-11 01:32:00,2805E-2,5C000400,-0724,0997,10504,027.2,045.3,0.150,734.4,01.18,0.508
2014-04-11 01:33:00,2834E-2,5C000400,-0724,0998,10454,027.2,045.3,0.150,734.6,01.18,0.508
2014-04-11 01:34:00,2835E-2,5C000400,-0724,0999,10488,027.2,045.3,0.150,734.5,01.18,0.508
2014-04-11 01:35:00,2828E-2,5C000400,-0724,0998,10454,027.2,045.3,0.150,734.8,01.18,0.508
2014-04-11 01:36:00,2861E-2,5C000400,-0724,0999,10620,027.2,045.3,0.150,734.6,01.18,0.508
2014-04-11 01:37:00,2847E-2,5C000400,-0724,0998,10621,027.2,045.3,0.150,734.6,01.18,0.508
2014-04-11 01:38:00,2841E-2,5C000400,-0724,0998,10680,027.2,045.3,0.150,734.3,01.18,0.508
2014-04-11 01:39:00,2864E-2,5C000400,-0724,0998,10567,027.2,045.3,0.150,734.7,01.18,0.508
2014-04-11 01:40:00,2878E-2,5C000400,-0724,0998,10374,027.2,045.3,0.150,734.7,01.18,0.508
2014-04-11 01:41:00,2828E-2,5C000400,-0724,0999,10561,027.2,045.3,0.150,734.6,01.18,0.508
2014-04-11 01:42:00,2848E-2,5C000400,-0724,0999,10461,027.2,045.3,0.150,734.6,01.18,0.508
2014-04-11 01:43:00,2850E-2,5C000400,-0724,0998,10406,027.2,045.3,0.150,734.7,01.18,0.508
2014-04-11 01:44:00,2871E-2,5C000400,-0724,0999,10524,027.2,045.3,0.150,734.4,01.18,0.508
2014-04-11 01:45:00,2879E-2,5C000400,-0724,0998,10528,027.2,045.3,0.150,734.4,01.18,0.508
2014-04-11 01:46:00,2834E-2,5C000400,-0724,0999,10647,027.2,045.3,0.150,734.5,01.18,0.508
2014-04-11 01:47:00,2882E-2,5C000400,-0724,0997,10593,027.2,045.3,0.150,734.7,01.18,0.508
2014-04-11 01:48:00,2881E-2,5C000400,-0724,0998,10641,027.1,045.3,0.150,734.6,01.18,0.508
2014-04-11 01:49:00,2797E-2,5C000400,-0724,0998,10490,027.1,045.3,0.150,734.7,01.18,0.508
2014-04-11 01:50:00,2856E-2,5C000400,-0724,0996,10456,027.2,045.3,0.150,734.8,01.18,0.508
2014-04-11 01:51:00,2871E-2,5C000400,-0724,0996,10666,027.2,045.3,0.150,734.1,01.19,0.508
2014-04-11 01:52:00,2853E-2,5C000400,-0724,0997,10583,027.2,045.3,0.150,734.7,01.18,0.508
2014-04-11 01:53:00,2821E-2,5C000400,-0724,0996,10651,027.2,045.3,0.150,734.8,01.18,0.508
2014-04-11 01:54:00,2809E-2,5C000400,-0724,0995,10490,027.2,045.3,0.150,734.8,01.18,0.508
2014-04-11 01:55:00,2883E-2,5C000400,-0724,0994,10584,027.2,045.3,0.150,734.7,01.18,0.508
2014-04-11 01:56:00,2859E-2,5C000400,-0724,0995,10574,027.1,045.3,0.150,734.7,01.18,0.508
2014-04-11 01:57:00,2831E-2,5C000400,-0724,0994,10541,027.2,045.3,0.150,734.8,01.18,0.508
2014-04-11 01:58:00,2811E-2,5C000400,-0724,0994,10642,027.1,045.3,0.150,734.8,01.18,0.508
2014-04-11 01:59:00,2848E-2,5C000400,-0724,0994,10612,027.2,045.3,0.150,734.7,01.18,0.508
2014-04-11 02:00:00,2824E-2,5C000400,-0724,0993,10520,027.2,045.3,0.150,734.8,01.18,0.508
2014-04-11 02:01:00,2866E-2,5C000400,-0724,0992,10573,027.2,045.3,0.150,734.7,01.18,0.508
2014-04-11 02:02:00,2817E-2,5C000400,-0724,0993,10670,027.2,045.3,0.150,734.7,01.18,0.508
2014-04-11 02:03:00,2899E-2,5C000400,-0724,0993,10713,027.2,045.3,0.150,734.7,01.18,0.508
2014-04-11 02:04:00,2825E-2,5C000400,-0724,0992,10634,027.2,045.3,0.150,734.6,01.18,0.508
2014-04-11 02:05:00,2840E-2,5C000400,-0724,0992,10525,027.1,045.3,0.150,734.6,01.18,0.508
2014-04-11 02:06:00,2847E-2,5C000400,-0724,0991,10598,027.2,045.3,0.150,734.6,01.18,0.508
2014-04-11 02:07:00,2830E-2,5C000400,-0724,0992,10594,027.1,045.3,0.150,734.5,01.18,0.508
2014-04-11 02:08:00,2817E-2,5C000400,-0724,0990,10598,027.1,045.3,0.150,734.5,01.18,0.508
2014-04-11 02:09:00,2856E-2,5C000400,-0724,0990,10540,027.1,045.3,0.150,734.6,01.18,0.508
2014-04-11 02:10:00,2841E-2,5C000400,-0724,0991,10579,027.1,045.3,0.150,734.5,01.18,0.508
2014-04-11 02:11:00,2828E-2,5C000400,-0724,0990,10529,027.1,045.3,0.150,734.5,01.18,0.508
2014-04-11 02:12:00,2869E-2,5C000400,-0724,0991,10532,027.1,045.3,0.150,734.5,01.18,0.508
2014-04-11 02:13:00,2844E-2,5C000400,-0724,0989,10457,027.1,045.3,0.150,734.4,01.18,0.508
2014-04-11 02:14:00,2866E-2,5C000400,-0724,0990,10639,027.1,045.3,0.150,734.3,01.18,0.508
2014-04-11 02:15:00,2871E-2,5C000400,-0724,0990,10661,027.1,045.3,0.150,734.4,01.18,0.508
2014-04-11 02:16:00,2831E-2,5C000400,-0724,0990,10630,027.1,045.3,0.150,734.4,01.18,0.508
2014-04-11 02:17:00,2843E-2,5C000400,-0724,0990,10611,027.1,045.3,0.150,734.3,01.18,0.508
2014-04-11 02:18:00,2860E-2,5C000400,-0724,0990,10603,027.1,045.3,0.150,734.3,01.18,0.508
2014-04-11 02:19:00,2867E-2,5C000400,-0724,0989,10710,027.1,045.3,0.150,734.3,01.18,0.508
2014-04-11 02:20:00,2820E-2,5C000400,-0724,0989,10604,027.1,045.3,0.150,734.3,01.18,0.508
2014-04-11 02:21:00,2869E-2,5C000400,-0724,0989,10632,027.1,045.3,0.150,734.3,01.18,0.508
2014-04-11 02:22:00,2806E-2,5C000400,-0724,0989,10582,027.1,045.3,0.150,734.3,01.18,0.508
2014-04-11 02:23:00,2836E-2,5C000400,-0724,0990,10689,027.1,045.3,0.150,734.2,01.18,0.508
2014-04-11 02:24:00,2889E-2,5C000400,-0724,0990,10765,027.1,045.3,0.150,734.1,01.19,0.508
2014-04-11 02:25:00,2871E-2,5C000400,-0724,0990,10524,027.1,045.3,0.150,733.9,01.19,0.508
2014-04-11 02:26:00,2858E-2,5C000400,-0724,0989,10376,027.1,045.3,0.150,734.0,01.19,0.508
2014-04-11 02:27:00,2884E-2,5C000400,-0724,0990,10534,027.1,045.3,0.150,734.0,01.19,0.508
2014-04-11 02:28:00,2864E-2,5C000400,-0724,0989,10610,027.1,045.3,0.150,734.0,01.19,0.508
2014-04-11 02:29:00,2838E-2,5C000400,-0724,0989,10647,027.1,045.3,0.150,734.0,01.19,0.508
2014-04-11 02:30:00,2885E-2,5C000400,-0724,0989,10711,027.1,045.3,0.150,733.8,01.19,0.508
2014-04-11 02:31:00,2856E-2,5C000400,-0724,0988,10631,027.1,045.3,0.150,733.9,01.19,0.508
2014-04-11 02:32:00,2876E-2,5C000400,-0724,0988,10574,027.1,045.3,0.150,733.8,01.19,0.508
2014-04-11 02:33:00,2841E-2,5C000400,-0724,0990,10490,027.1,045.3,0.150,733.7,01.19,0.508
2014-04-11 02:34:00,2870E-2,5C000400,-0724,0990,10674,027.1,045.3,0.150,733.8,01.19,0.508
2014-04-11 02:35:00,2853E-2,5C000400,-0724,0990,10630,027.1,045.3,0.150,733.7,01.19,0.508
2014-04-11 02:36:00,2899E-2,5C000400,-0724,0989,10401,027.1,045.3,0.150,733.6,01.19,0.508
2014-04-11 02:37:00,2897E-2,5C000400,-0724,0989,10600,027.1,045.3,0.150,733.5,01.19,0.508
2014-04-11 02:38:00,2862E-2,5C000400,-0724,0989,10778,027.1,045.3,0.150,733.7,01.19,0.508
2014-04-11 02:39:00,2841E-2,5C000400,-0724,0989,10662,027.1,045.3,0.150,733.5,01.19,0.508
2014-04-11 02:40:00,2869E-2,5C000400,-0724,0989,10679,027.1,045.3,0.150,733.4,01.19,0.508
2014-04-11 02:41:00,2906E-2,5C000400,-0724,0989,10529,027.1,045.3,0.150,733.5,01.19,0.508
2014-04-11 02:42:00,2830E-2,5C000400,-0724,0989,10704,027.0,045.3,0.150,733.4,01.19,0.508
2014-04-11 02:43:00,2860E-2,5C000400,-0724,0989,10391,027.0,045.3,0.150,733.5,01.19,0.508
2014-04-11 02:44:00,2907E-2,5C000400,-0724,0989,10656,027.1,045.3,0.150,733.3,01.19,0.508
2014-04-11 02:45:00,2918E-2,5C000400,-0724,0990,10656,027.0,045.3,0.150,733.4,01.19,0.508
2014-04-11 02:46:00,2878E-2,5C000400,-0724,0989,10807,027.1,045.3,0.150,733.4,01.19,0.508
2014-04-11 02:47:00,2880E-2,5C000400,-0724,0989,10736,027.0,045.3,0.150,733.4,01.19,0.508
2014-04-11 02:48:00,2890E-2,5C000400,-0724,0989,10395,027.0,045.3,0.150,733.4,01.19,0.508
2014-04-11 02:49:00,2891E-2,5C000400,-0724,0989,10580,027.0,045.3,0.150,733.3,01.19,0.508
2014-04-11 02:50:00,2939E-2,5C000400,-0724,0987,10563,027.0,045.3,0.150,733.2,01.19,0.508
2014-04-11 02:51:00,2926E-2,5C000400,-0724,0990,10598,027.0,045.3,0.150,733.3,01.19,0.508
2014-04-11 02:52:00,2843E-2,5C000400,-0724,0990,10520,027.0,045.3,0.150,733.2,01.19,0.508
2014-04-11 02:53:00,2849E-2,5C000400,-0724,0989,10526,027.1,045.3,0.150,733.2,01.19,0.508
2014-04-11 02:54:00,2805E-2,5C000400,-0724,0989,10664,027.1,045.3,0.150,733.1,01.19,0.508
2014-04-11 02:55:00,2814E-2,5C000400,-0724,0989,10376,027.0,045.3,0.150,733.1,01.19,0.508
2014-04-11 02:56:00,2815E-2,5C000400,-0724,0988,10754,027.0,045.3,0.150,733.1,01.19,0.508
2014-04-11 02:57:00,2869E-2,5C000400,-0724,0989,10545,027.0,045.3,0.150,733.1,01.19,0.508
2014-04-11 02:58:00,2836E-2,5C000400,-0724,0989,10574,027.1,045.3,0.150,733.0,01.19,0.508
2014-04-11 02:59:00,2863E-2,5C000400,-0724,0989,10630,027.1,045.3,0.150,732.9,01.19,0.508
2014-04-11 03:00:00,2896E-2,5C000400,-0724,0990,10724,027.0,045.3,0.150,732.9,01.19,0.508
2014-04-11 03:01:00,2915E-2,5C000400,-0724,0988,10719,027.1,045.3,0.150,732.8,01.19,0.508
2014-04-11 03:02:00,2857E-2,5C000400,-0724,0989,10674,027.1,045.3,0.150,732.9,01.19,0.508
2014-04-11 03:03:00,2909E-2,5C000400,-0724,0988,10760,027.1,045.3,0.150,732.8,01.19,0.508
2014-04-11 03:04:00,2884E-2,5C000400,-0724,0990,10547,027.1,045.3,0.150,732.8,01.19,0.508
2014-04-11 03:05:00,2859E-2,5C000400,-0724,0990,10474,027.1,045.3,0.150,732.8,01.19,0.508
2014-04-11 03:06:00,2848E-2,5C000400,-0724,0990,10630,027.1,045.3,0.150,732.7,01.19,0.508
2014-04-11 03:07:00,2898E-2,5C000400,-0724,0989,10695,027.1,045.3,0.150,732.7,01.19,0.508
2014-04-11 03:08:00,2883E-2,5C000400,-0724,0990,10633,027.1,045.3,0.150,732.8,01.19,0.508
2014-04-11 03:09:00,2867E-2,5C000400,-0724,0989,10542,027.1,045.3,0.150,732.8,01.19,0.508
2014-04-11 03:10:00,2901E-2,5C000400,-0724,0990,10609,027.1,045.3,0.150,732.8,01.19,0.508
2014-04-11 03:11:00,2910E-2,5C000400,-0724,0989,10593,027.1,045.3,0.150,732.7,01.19,0.508
2014-04-11 03:12:00,2868E-2,5C000400,-0724,0990,10763,027.1,045.3,0.150,732.7,01.19,0.508
2014-04-11 03:13:00,2885E-2,5C000400,-0724,0990,10581,027.1,045.3,0.150,732.7,01.19,0.508
2014-04-11 03:14:00,2886E-2,5C000400,-0724,0990,10616,027.1,045.3,0.150,732.6,01.19,0.508
2014-04-11 03:15:00,2857E-2,5C000400,-0724,0990,10460,027.1,045.3,0.150,732.6,01.19,0.508
2014-04-11 03:16:00,2918E-2,5C000400,-0724,0990,10728,027.1,045.3,0.150,732.6,01.19,0.508
2014-04-11 03:17:00,2879E-2,5C000400,-0724,0990,10820,027.1,045.3,0.150,732.5,01.19,0.508
2014-04-11 03:18:00,2883E-2,5C000400,-0724,0990,10400,027.1,045.3,0.150,732.5,01.19,0.508
2014-04-11 03:19:00,2866E-2,5C000400,-0724,0990,10475,027.1,045.3,0.150,732.5,01.19,0.508
2014-04-11 03:20:00,2883E-2,5C000400,-0724,0991,10585,027.1,045.3,0.150,732.5,01.19,0.508
2014-04-11 03:21:00,2905E-2,5C000400,-0724,0992,10283,027.1,045.3,0.150,732.4,01.19,0.508
2014-04-11 03:22:00,2879E-2,5C000400,-0724,0990,10618,027.1,045.3,0.150,732.5,01.19,0.508
2014-04-11 03:23:00,2887E-2,5C000400,-0724,0991,10733,027.1,045.3,0.150,732.4,01.19,0.508
2014-04-11 03:24:00,2894E-2,5C000400,-0724,0990,10676,027.1,045.3,0.150,732.4,01.19,0.508
2014-04-11 03:25:00,2914E-2,5C000400,-0724,0990,10485,027.1,045.3,0.150,732.4,01.19,0.508
2014-04-11 03:26:00,2944E-2,5C000400,-0724,0991,10670,027.1,045.3,0.150,732.3,01.19,0.508
2014-04-11 03:27:00,2904E-2,5C000400,-0724,0991,10620,027.1,045.3,0.150,732.4,01.19,0.508
2014-04-11 03:28:00,2926E-2,5C000400,-0724,0991,10589,027.1,045.3,0.150,732.4,01.19,0.508
2014-04-11 03:29:00,2886E-2,5C000400,-0724,0990,10502,027.1,045.3,0.150,732.3,01.19,0.508
2014-04-11 03:30:00,2925E-2,5C000400,-0724,0991,10512,027.1,045.3,0.150,732.3,01.19,0.508
2014-04-11 03:31:00,2938E-2,5C000400,-0724,0991,10708,027.1,045.3,0.150,732.4,01.19,0.508
2014-04-11 03:32:00,2945E-2,5C000400,-0724,0989,10581,027.1,045.3,0.150,732.2,01.19,0.508
2014-04-11 03:33:00,2892E-2,5C000400,-0724,0990,10509,027.1,045.3,0.150,732.1,01.19,0.508
2014-04-11 03:34:00,2924E-2,5C000400,-0724,0990,10643,027.1,045.3,0.150,732.3,01.19,0.508
2014-04-11 03:35:00,2910E-2,5C000400,-0724,0990,10627,027.1,045.3,0.150,732.2,01.19,0.508
2014-04-11 03:36:00,2876E-2,5C000400,-0724,0991,10517,027.1,045.3,0.150,732.1,01.19,0.508
2014-04-11 03:37:00,2871E-2,5C000400,-0724,0991,10582,027.1,045.3,0.150,732.2,01.19,0.508
2014-04-11 03:38:00,2882E-2,5C000400,-0724,0990,10621,027.1,045.3,0.150,732.2,01.19,0.508
2014-04-11 03:39:00,2865E-2,5C000400,-0724,0991,10670,027.1,045.3,0.150,732.2,01.19,0.508
2014-04-11 03:40:00,2894E-2,5C000400,-0724,0992,10434,027.1,045.3,0.150,732.0,01.19,0.508
2014-04-11 03:41:00,2942E-2,5C000400,-0724,0991,10675,027.1,045.3,0.150,732.1,01.19,0.508
2014-04-11 03:42:00,2904E-2,5C000400,-0724,0992,10638,027.1,045.3,0.150,732.1,01.19,0.508
2014-04-11 03:43:00,2939E-2,5C000400,-0724,0992,10628,027.1,045.3,0.150,732.2,01.19,0.508
2014-04-11 03:44:00,2964E-2,5C000400,-0724,0991,10541,027.1,045.3,0.150,732.1,01.19,0.508
2014-04-11 03:45:00,2954E-2,5C000400,-0724,0990,10715,027.1,045.3,0.150,732.0,01.19,0.508
2014-04-11 03:46:00,2940E-2,5C000400,-0724,0991,10614,027.1,045.3,0.150,732.1,01.19,0.508
2014-04-11 03:47:00,2922E-2,5C000400,-0724,0991,10577,027.1,045.3,0.150,732.0,01.19,0.508
2014-04-11 03:48:00,2916E-2,5C000400,-0724,0991,10476,027.1,045.3,0.150,732.0,01.19,0.508
2014-04-11 03:49:00,2921E-2,5C000400,-0724,0990,10638,027.1,045.3,0.150,732.2,01.19,0.508
2014-04-11 03:50:00,2950E-2,5C000400,-0724,0991,10608,027.1,045.3,0.150,732.1,01.19,0.508
2014-04-11 03:51:00,2897E-2,5C000400,-0724,0990,10554,027.1,045.3,0.150,732.1,01.19,0.508
2014-04-11 03:52:00,2954E-2,5C000400,-0724,0991,10489,027.1,045.3,0.150,732.1,01.19,0.508
2014-04-11 03:53:00,2930E-2,5C000400,-0724,0991,10673,027.1,045.3,0.150,732.1,01.19,0.508
2014-04-11 03:54:00,2932E-2,5C000400,-0724,0990,10692,027.1,045.3,0.150,732.0,01.19,0.508
2014-04-11 03:55:00,2989E-2,5C000400,-0724,0991,10628,027.1,045.3,0.150,732.0,01.19,0.508
2014-04-11 03:56:00,2904E-2,5C000400,-0724,0992,10616,027.1,045.3,0.150,732.1,01.19,0.508
2014-04-11 03:57:00,2956E-2,5C000400,-0724,0990,10591,027.1,045.3,0.150,732.0,01.19,0.508
2014-04-11 03:58:00,2974E-2,5C000400,-0724,0992,10479,027.1,045.3,0.150,732.0,01.19,0.508
2014-04-11 03:59:00,2960E-2,5C000400,-0724,0992,10655,027.0,045.3,0.150,732.0,01.19,0.508
2014-04-11 04:00:00,2975E-2,5C000400,-0724,0992,10619,027.1,045.3,0.150,732.0,01.19,0.508
2014-04-11 04:01:00,2947E-2,5C000400,-0724,0992,10575,027.1,045.3,0.150,732.0,01.19,0.508
2014-04-11 04:02:00,2949E-2,5C000400,-0724,0991,10553,027.1,045.3,0.150,732.0,01.19,0.508
2014-04-11 04:03:00,2964E-2,5C000400,-0724,0994,10517,027.1,045.3,0.150,732.0,01.19,0.508
2014-04-11 04:04:00,2984E-2,5C000400,-0724,0991,10648,027.0,045.3,0.150,731.9,01.19,0.508
2014-04-11 04:05:00,2958E-2,5C000400,-0724,0992,10528,027.0,045.3,0.150,732.0,01.19,0.508
2014-04-11 04:06:00,2948E-2,5C000400,-0724,0993,10741,027.0,045.3,0.150,731.9,01.19,0.508
2014-04-11 04:07:00,2971E-2,5C000400,-0724,0991,10655,027.0,045.3,0.150,731.9,01.19,0.508
2014-04-11 04:08:00,2969E-2,5C000400,-0724,0991,10605,027.1,045.3,0.150,731.7,01.19,0.508
2014-04-11 04:09:00,2956E-2,5C000400,-0724,0992,10541,027.0,045.3,0.150,731.7,01.19,0.508
2014-04-11 04:10:00,2996E-2,5C000400,-0724,0992,10714,027.0,045.3,0.150,731.8,01.19,0.508
2014-04-11 04:11:00,2990E-2,5C000400,-0724,0991,10638,027.0,045.3,0.150,731.9,01.19,0.508
2014-04-11 04:12:00,3003E-2,5C000400,-0724,0990,10600,027.0,045.3,0.150,731.7,01.19,0.508
2014-04-11 04:13:00,2987E-2,5C000400,-0724,0992,10660,027.0,045.3,0.150,731.9,01.19,0.508
2014-04-11 04:14:00,2982E-2,5C000400,-0724,0991,10508,027.0,045.3,0.150,731.8,01.19,0.508
2014-04-11 04:15:00,3001E-2,5C000400,-0724,0992,10514,027.0,045.3,0.150,731.7,01.19,0.508
2014-04-11 04:16:00,2970E-2,5C000400,-0724,0991,10695,027.0,045.3,0.150,731.6,01.19,0.508
2014-04-11 04:17:00,3018E-2,5C000400,-0724,0992,10644,027.0,045.3,0.150,731.6,01.19,0.508
2014-04-11 04:18:00,3025E-2,5C000400,-0724,0992,10780,027.1,045.3,0.150,731.7,01.19,0.508
2014-04-11 04:19:00,3011E-2,5C000400,-0724,0992,10523,027.1,045.3,0.150,731.6,01.19,0.508
2014-04-11 04:20:00,2963E-2,5C000400,-0724,0993,10565,027.0,045.3,0.150,731.7,01.19,0.508